Regional Weather Roundup
Issued by NWS

Home | Current Version | Previous Version | Text Only | Print | Product List | Glossary Off
Versions: 1 2 3 4 5 6 7 8 9 10 11 12 13 14 15 16 17 18 19 20 21 22 23 24 25 26 27 28 29 30 31 32 33 34 35 36 37 38 39 40 41 42 43 44 45 46 47 48 49 50

000
ASUS45 KBOU 050410
RWRCO

WEATHER ROUNDUP FOR COLORADO
NATIONAL WEATHER SERVICE DENVER/BOULDER CO
1000 PM MDT SAT JUL 04 2015

NOTE: "FAIR" INDICATES FEW OR NO CLOUDS BELOW 12000 FEET WITH NO
SIGNIFICANT WEATHER AND/OR OBSTRUCTIONS TO VISIBILITY.

COZ001>005-013-030-031-050500-
...NORTHWEST COLORADO...

CITY           SKY/WX    TMP DP  RH WIND       PRES   REMARKS
CRAIG          CLOUDY    67  52  58 E6        30.10R
HAYDEN         CLOUDY    63  48  59 SE8       30.13R
MEEKER         MOCLDY    69  48  47 NE8       30.12S
MOUNT WERNER   NOT AVBL
STEAMBOAT SPGS CLOUDY    61  50  67 CALM      30.17R
WALDEN         CLOUDY    55  46  71 E6        30.25R
$$

COZ006>008-011-050500-
...WEST CENTRAL VALLEYS...

CITY           SKY/WX    TMP DP  RH WIND       PRES   REMARKS
GRAND JUNCTION MOCLDY    81  49  32 E25G33    29.95R
MONTROSE       CLOUDY    78  47  33 S10       30.09R
EAGLE          MOCLDY    70  46  43 NE3       30.19R
RIFLE          CLOUDY    68  58  70 NE6       30.11R
DELTA          CLOUDY    85  48  28 SW5       30.03R
NUCLA          CLOUDY    73  50  43 SW8       30.19R
$$

COZ017>023-064>068-050500-
...SOUTHWEST COLORADO...

CITY           SKY/WX    TMP DP  RH WIND       PRES   REMARKS
DURANGO        LGT RAIN  60  58  92 N9        30.26F
CORTEZ         CLOUDY    70  52  52 N6        30.18R
PAGOSA SPRINGS MOCLDY    60  57  91 CALM      30.34R
TELLURIDE      CLOUDY    61  49  62 SE13G20   30.41R
WOLF CREEK PAS NOT AVBL
$$

COZ009-010-012-014-032>034-037-058>063-050500-
...CENTRAL COLORADO...

CITY           SKY/WX    TMP DP  RH WIND       PRES   REMARKS
ASPEN          CLOUDY    65  49  56 N5        30.28R
BUENA VISTA    MOCLDY    58  50  74 W3        30.30S
COPPER MTN     LGT RAIN  55  37  50 S12       30.60R
BERTHOUD PASS  FAIR      45  34  65 E7        30.64R
COTTONWOOD PAS NOT AVBL
GUNNISON       CLOUDY    66  45  45 NE14      30.30R
KREMMLING      CLOUDY    70  41  35 SW6       30.22R
LEADVILLE      CLOUDY    54  46  74 CALM      30.43R
SALIDA         MOCLDY    66  51  58 CALM      30.33R
SUNLIGHT       CLOUDY    55  45  67 CALM      30.53R
WILKERSON PASS CLOUDY    54  39  58 CALM      30.56F
$$

COZ069>075-050500-
...SAN LUIS VALLEY/SANGRE DE CRISTO MOUNTAINS...

CITY           SKY/WX    TMP DP  RH WIND       PRES   REMARKS
ALAMOSA        CLOUDY    61  50  67 E10       30.27R
LA VETA PASS   MOCLDY    46  41  81 MISG      30.45R
SAGUACHE       CLOUDY    63  50  63 NW16G24   30.33R
$$

COZ035-036-038>040-050500-
...NORTHERN COLORADO FRONT RANGE...

CITY           SKY/WX    TMP DP  RH WIND       PRES   REMARKS
DENVER INTL AP CLOUDY    76  48  37 SW16      30.01S
DMNS CITY PARK   N/A     75  48  38 S5G16     30.00F
AURORA         MOCLDY    73  50  44 SW17G23   30.03F
FRONT RANGE AP NOT AVBL
ERIE MUNI ARPT CLOUDY    72  49  44 W7        29.98R
BOULDER MUN AP CLOUDY    73  46  38 SW13G18   29.99S
CENTENNIAL     CLOUDY    74  49  41 SW15      30.07S
BROOMFIELD     MOCLDY    75  46  35 W8        30.01F
FORT COLLINS   MOCLDY    75  52  43 CALM      29.98R
LONGMONT       MOCLDY    77  47  34 SW7       29.99S
$$

COZ041-046-047-076>085-087-088-050500-
...PIKES PEAK/PALMER DIVIDE AND SOUTHERN FOOTHILLS...

CITY           SKY/WX    TMP DP  RH WIND       PRES   REMARKS
COLO. SPRINGS  CLOUDY    71  49  45 NW13      30.10S
A. F. ACADEMY  CLOUDY    62  52  71 N10       30.12F
ELLICOTT       CLOUDY   N/A N/A N/A CALM      30.07R
FALCON         CLOUDY    65  47  53 NW6       30.15S
FORT CARSON    CLOUDY    71  51  50 NW12      30.06S
LIMON          MOCLDY    67  50  54 NE12      30.03R
MONUMENT HILL  NOT AVBL
TRINIDAD       MOCLDY    69  52  54 SW8       30.09R
$$

COZ042>045-048>051-090-091-050500-
...NORTHEAST COLORADO...

CITY           SKY/WX    TMP DP  RH WIND       PRES   REMARKS
GREELEY ARPT   MOCLDY    72  57  60 SW7       29.96S
AKRON          MOCLDY    71  56  58 S13       29.95R
BURLINGTON     CLOUDY    78  58  49 SE16G26   29.95R
WRAY           CLOUDY    82  62  50 SE17G28   29.89R
STERLING       MOCLDY    77  59  53 SW6         N/A
HOLYOKE        CLOUDY    82  63  51 SE18      29.90R
FORT MORGAN    MOCLDY    72  55  55 W6        29.95R
$$

COZ086-089-092>099-050500-
...SOUTHEAST COLORADO...

CITY           SKY/WX    TMP DP  RH WIND       PRES   REMARKS
PUEBLO         CLOUDY    78  52  40 NW8       29.97F
LA JUNTA       PTCLDY    77  52  41 W9        29.94R
LAMAR          PTCLDY    80  59  48 S22G31    29.89R
SPRINGFIELD      N/A     71  57  61 S17       30.01F
$$


USA.gov is the U.S. government's official web portal to all federal, state and local government web resources and services.